Miscellaneous Local Product
Issued by NWS Hastings, NE

Home | Current Version | Previous Version | Text Only | Print | Product List | Glossary Off
Versions: 1 2 3 4 5 6 7 8 9 10 11 12 13 14 15 16 17 18 19 20 21 22 23 24 25 26 27 28 29 30 31 32 33 34 35 36 37 38 39 40 41 42 43 44 45 46 47 48 49 50

000
AXUS43 KGID 270202
MISGRI

GID CWA HOURLY WEATHER ROUNDUP
NATIONAL WEATHER SERVICE HASTINGS NE
900 PM CDT WED AUG 26 2015

NOTE: "FAIR" INDICATES FEW OR NO CLOUDS BELOW 12,000 FEET WITH NO
SIGNIFICANT WEATHER AND/OR OBSTRUCTIONS TO VISIBILITY.

...SOUTH CENTRAL NEBRASKA...

CITY           SKY/WX    TMP DP  RH WIND       PRES   REMARKS
GRAND ISLAND   CLEAR     75  67  76 SE9       30.04R
HASTINGS       CLEAR     78  66  66 SE14      30.03S
KEARNEY        CLEAR     75  66  73 SE12      30.03R
ORD            CLEAR     77  67  71 SE7       30.01S
YORK           CLEAR     73  66  78 SE8       30.05R
AURORA         CLEAR     73  69  87 SE8       30.05R
LEXINGTON      CLEAR     81  72  74 SE12      30.00S
HOLDREGE       CLEAR     78  69  73 SE9       30.01S
HEBRON         CLEAR     77  61  58 SE6       30.04S

...NEBRASKA PANHANDLE...

CITY           SKY/WX    TMP DP  RH WIND       PRES   REMARKS
CHADRON        CLOUDY    83  54  36 SE7       29.90F
ALLIANCE       MOCLDY    83  43  24 SE13      29.98S
SCOTTSBLUFF    CLOUDY    79  58  48 E9        29.99R
SIDNEY         CLOUDY    82  40  22 S9        30.04S

...WESTERN AND NORTH CENTRAL NEBRASKA...

CITY           SKY/WX    TMP DP  RH WIND       PRES   REMARKS
VALENTINE      CLEAR     82  68  62 SE9       29.97S
AINSWORTH      PTCLDY    81  69  66 SE8       29.99S
ONEILL         PTCLDY    76  68  76 SE9       30.02R
BROKEN BOW     CLEAR     79  70  74 SE9       30.02S
IMPERIAL       MOCLDY    84  44  24 S10       29.99S
NORTH PLATTE   PTCLDY    76  71  85 E14       29.99R
MCCOOK         MOCLDY    87  51  28 E3        29.97R

...EASTERN NEBRASKA...

CITY           SKY/WX    TMP DP  RH WIND       PRES   REMARKS
NORFOLK        PTCLDY    70  64  81 SE13      30.05R
SO SIOUX CITY  CLEAR     68  62  81 SE10      30.06R
TEKAMAH        CLEAR     66  63  90 SE6       30.07S
COLUMBUS       CLEAR    N/A N/A N/A SE5       30.05S
ALBION         CLEAR     73  65  78 SE5       30.04S
OMAHA EPPLEY   PTCLDY    70  63  78 SE10      30.08S
OFFUTT AFB     CLEAR     67  62  83 E7        30.08R
MILLARD        CLEAR     72  64  76 SE5       30.07S
LINCOLN        CLEAR     74  63  68 SE12      30.07R
NEBRASKA CITY  CLEAR     70  59  68 SE8       30.09S
BEATRICE       CLEAR     73  64  71 SE5       30.06S
FALLS CITY     CLEAR     68  63  84 SE6       30.08S

...NORTHERN KANSAS...

CITY           SKY/WX    TMP DP  RH WIND       PRES   REMARKS
GOODLAND       MOCLDY    77  47  34 S10       30.07R
HILL CITY      CLEAR     85  53  33 S3        29.99R
NORTON         CLEAR     81  46  30 SE6       29.99R
PHILLIPSBURG   CLEAR     88  70  55 E10       29.98S HX  92
SMITH CENTER   CLEAR     81  70  69 E16       30.01R
HAYS           PTCLDY    86  64  48 SE12      30.00R
RUSSELL        PTCLDY    85  67  54 SE14      30.00R
CONCORDIA      CLEAR     77  67  71 SE10      30.03S
SALINA         CLEAR     81  70  69 SE10      30.02S
TOPEKA         CLEAR     71  64  78 E7        30.09R



USA.gov is the U.S. government's official web portal to all federal, state and local government web resources and services.